DW7896 Weather Reports


time (UTC)temp
F
wind
direction
speed
knots
gust
knots
rain 1hr
in
rain 24hr
in
rain mn
in
humidity
%
barometer
mb
20260506202003 52 17 0.9 6.1 0.07 0.71 0.68 93 1016.5
20260506201504 52 16 0.9 7.0 0.07 0.71 0.68 93 1016.5
20260506201006 52 25 1.7 7.0 0.07 0.71 0.68 92 1016.3
20260506200503 53 20 1.7 7.0 0.07 0.71 0.68 92 1016.3
20260506200003 54 342 2.6 7.0 0.06 0.70 0.67 91 1016.1
20260506195504 55 342 1.7 8.7 0.04 0.68 0.64 89 1016.5
20260506195003 57 52 2.6 9.6 0.00 0.65 0.61 87 1016.0
20260506194503 60 73 1.7 9.6 0.00 0.65 0.61 86 1016.2
20260506194024 62 88 0.9 7.0 0.00 0.65 0.61 93 1016.1
20260506193504 62 90 0.0 1.7 0.00 0.65 0.61 93 1016.0
20260506193004 62 0 0.0 0.0 0.00 0.65 0.61 93 1015.9
20260506192503 62 285 0.0 0.9 0.01 0.65 0.61 93 1016.0
20260506192003 62 204 0.0 0.9 0.01 0.65 0.61 93 1016.3
20260506191503 62 166 0.0 0.9 0.02 0.65 0.61 93 1016.1
20260506191003 62 165 0.0 0.9 0.02 0.65 0.61 93 1016.1
20260506190524 62 163 0.0 0.9 0.03 0.65 0.61 93 1016.1
20260506190024 61 0 0.0 0.0 0.04 0.65 0.61 93 1015.8
20260506185504 61 0 0.0 0.0 0.05 0.65 0.61 93 1015.9
20260506185003 61 186 0.0 1.7 0.07 0.65 0.61 93 1016.2
20260506184503 61 164 0.0 1.7 0.08 0.65 0.61 93 1016.2
20260506184003 60 166 0.0 1.7 0.09 0.65 0.61 93 1016.3
20260506183503 60 195 0.0 1.7 0.09 0.64 0.60 93 1016.0
20260506183005 60 0 0.0 0.0 0.09 0.64 0.60 93 1016.3
20260506182503 60 0 0.0 0.0 0.09 0.64 0.60 93 1016.2
20260506182003 60 0 0.0 0.0 0.09 0.63 0.59 93 1016.4
20260506181503 60 237 0.0 0.9 0.09 0.63 0.59 93 1016.5
20260506181003 60 237 0.0 0.9 0.09 0.63 0.59 93 1016.2
20260506180524 59 0 0.0 0.0 0.09 0.62 0.58 93 1016.4
20260506180004 59 0 0.0 0.0 0.09 0.61 0.57 93 1016.4
20260506175503 59 308 0.0 2.6 0.08 0.59 0.56 93 1016.6
20260506175003 59 297 0.0 2.6 0.07 0.58 0.54 93 1016.7
20260506174503 59 270 0.0 2.6 0.07 0.57 0.53 93 1016.4
20260506174025 59 0 0.0 0.0 0.07 0.56 0.52 93 1016.8
20260506173503 58 0 0.0 0.0 0.08 0.55 0.51 93 1016.5
20260506173003 58 0 0.0 0.0 0.09 0.55 0.51 93 1016.5
20260506172503 58 0 0.0 0.0 0.09 0.54 0.50 93 1016.6
20260506172024 58 0 0.0 0.0 0.10 0.54 0.50 93 1016.5
20260506171525 57 0 0.0 0.0 0.10 0.54 0.50 93 1016.7
20260506171004 57 0 0.0 0.0 0.10 0.53 0.49 93 1016.6
20260506170503 57 86 0.0 0.9 0.10 0.52 0.48 93 1017.0
20260506170004 57 85 0.0 0.9 0.10 0.52 0.48 93 1016.9
20260506165524 57 91 0.0 0.9 0.11 0.52 0.48 93 1016.9
20260506165024 56 108 0.0 0.9 0.10 0.50 0.46 93 1017.2
20260506164504 56 0 0.0 0.0 0.09 0.49 0.45 93 1017.0
20260506164004 56 0 0.0 0.0 0.09 0.48 0.44 93 1017.4
20260506163504 56 0 0.0 0.0 0.08 0.47 0.43 93 1017.3
20260506163003 56 88 0.0 0.9 0.07 0.46 0.42 93 1017.3
20260506162503 56 56 0.0 1.7 0.07 0.45 0.41 93 1017.3
20260506162003 56 67 0.0 1.7 0.07 0.44 0.41 93 1017.1
20260506161504 56 82 0.0 1.7 0.07 0.44 0.40 93 1017.3
20260506161004 56 91 0.0 0.9 0.07 0.43 0.39 93 1017.4
20260506160503 56 93 0.0 0.9 0.08 0.43 0.39 93 1017.6
20260506160024 56 80 0.0 1.7 0.08 0.42 0.38 93 1017.5
20260506155504 56 80 0.0 1.7 0.08 0.41 0.37 93 1017.7
20260506155024 56 88 0.0 1.7 0.09 0.41 0.37 93 1017.8
20260506154524 56 72 0.0 1.7 0.09 0.40 0.36 93 1017.8
20260506154003 56 61 0.0 1.7 0.09 0.39 0.35 93 1018.0
20260506153503 56 58 0.0 0.9 0.09 0.39 0.35 93 1018.1
20260506153004 56 82 0.0 0.9 0.09 0.38 0.34 93 1018.0
20260506152503 56 91 0.0 0.9 0.10 0.38 0.34 93 1017.9
20260506152024 55 0 0.0 0.0 0.10 0.37 0.33 93 1018.0
20260506151503 55 46 0.0 0.9 0.10 0.36 0.32 93 1018.1
20260506151003 55 39 0.0 2.6 0.11 0.35 0.31 93 1018.2
20260506150503 55 56 0.9 2.6 0.11 0.35 0.31 93 1018.2
20260506150004 55 81 0.0 1.7 0.11 0.34 0.30 93 1018.2
20260506145503 55 76 0.0 0.9 0.10 0.33 0.29 93 1018.0
20260506145003 55 65 0.0 0.9 0.10 0.32 0.28 93 1018.4
20260506144503 55 67 0.9 2.6 0.11 0.31 0.27 93 1018.7
20260506144003 55 68 0.0 2.6 0.11 0.30 0.26 93 1018.4
20260506143503 55 50 0.0 1.7 0.11 0.30 0.26 92 1018.6
20260506143003 55 47 0.0 1.7 0.11 0.29 0.25 92 1018.7
20260506142503 55 38 0.0 0.9 0.11 0.28 0.24 92 1018.7
20260506142025 55 0 0.0 0.0 0.10 0.27 0.23 92 1018.8
20260506141524 55 0 0.0 0.0 0.09 0.26 0.22 92 1019.1
20260506141025 55 0 0.0 0.0 0.09 0.25 0.21 92 1019.0
20260506140504 55 0 0.0 0.0 0.08 0.24 0.20 92 1018.9
20260506140003 55 0 0.0 0.0 0.07 0.23 0.19 92 1019.1
20260506135504 55 0 0.0 0.0 0.07 0.22 0.19 92 1019.2
20260506135004 54 0 0.0 0.0 0.07 0.22 0.18 92 1019.2
20260506134503 54 0 0.0 0.0 0.06 0.20 0.17 92 1019.0
20260506134025 54 0 0.0 0.0 0.06 0.20 0.16 92 1019.0
20260506133503 54 76 0.0 0.9 0.06 0.19 0.15 92 1018.9
20260506133004 54 72 0.0 0.9 0.06 0.18 0.14 92 1018.6
20260506132504 54 67 0.0 0.9 0.06 0.17 0.13 92 1018.4
20260506132003 54 45 0.0 0.9 0.06 0.17 0.13 92 1018.4
20260506131503 54 28 0.0 0.9 0.06 0.17 0.13 92 1018.6
20260506131003 54 0 0.0 0.0 0.06 0.16 0.12 92 1018.8
20260506130503 54 0 0.0 0.0 0.06 0.16 0.12 92 1018.5
20260506130005 54 0 0.0 0.0 0.07 0.16 0.12 92 1018.8
20260506125504 54 0 0.0 0.0 0.07 0.15 0.11 92 1018.3
20260506125003 54 0 0.0 0.0 0.06 0.15 0.11 91 1018.7
20260506124525 54 0 0.0 0.0 0.06 0.14 0.10 91 1018.8
20260506124003 54 0 0.0 0.0 0.06 0.14 0.10 92 1018.9
20260506123503 54 0 0.0 0.0 0.05 0.13 0.09 91 1019.1
20260506123003 54 0 0.0 0.0 0.04 0.12 0.08 92 1019.2
20260506122525 54 0 0.0 0.0 0.04 0.12 0.08 91 1019.2
20260506122004 54 0 0.0 0.0 0.03 0.11 0.07 91 1019.3
20260506121503 54 0 0.0 0.0 0.02 0.11 0.07 91 1019.2
20260506121025 54 0 0.0 0.0 0.02 0.10 0.06 91 1019.4
20260506120504 54 0 0.0 0.0 0.02 0.09 0.06 92 1019.7
20260506120003 54 0 0.0 0.0 0.01 0.09 0.05 92 1019.7
20260506115504 54 0 0.0 0.0 0.01 0.09 0.05 92 1019.2
20260506115003 54 0 0.0 0.0 0.00 0.08 0.04 92 1019.1
20260506114503 54 0 0.0 0.0 0.00 0.08 0.04 92 1019.3
20260506114005 54 146 0.0 0.9 0.00 0.08 0.04 92 1019.4
20260506113503 54 276 0.0 2.6 0.01 0.08 0.04 92 1019.0
20260506113004 54 286 0.0 2.6 0.01 0.08 0.04 92 1018.7
20260506112503 54 0 0.0 0.0 0.01 0.08 0.04 92 1018.7
20260506112003 54 78 0.0 0.9 0.01 0.08 0.04 92 1018.8
20260506111503 54 78 0.0 0.9 0.01 0.08 0.04 92 1018.7
20260506111003 54 0 0.0 0.0 0.01 0.08 0.04 92 1018.9
20260506110524 53 86 0.0 2.6 0.01 0.08 0.04 92 1018.7
20260506110003 53 93 0.9 2.6 0.01 0.08 0.04 92 1019.1
20260506105503 53 105 0.0 1.7 0.01 0.08 0.04 92 1018.9
20260506105003 53 253 0.0 0.9 0.01 0.08 0.04 92 1019.1
20260506104504 53 253 0.0 1.7 0.01 0.08 0.04 92 1018.8
20260506104003 53 271 0.0 2.6 0.01 0.08 0.04 92 1018.7
20260506103504 53 265 0.9 2.6 0.00 0.07 0.04 92 1018.6
20260506103025 53 96 0.9 2.6 0.00 0.07 0.04 92 1018.5
20260506102503 53 70 0.0 2.6 0.00 0.07 0.04 92 1018.5
20260506102003 53 44 0.0 1.7 0.00 0.07 0.04 92 1018.6
20260506101524 53 74 0.0 1.7 0.00 0.08 0.04 92 1018.6
20260506101003 53 73 0.0 1.7 0.00 0.08 0.03 91 1018.7
20260506100503 53 0 0.0 0.0 0.00 0.08 0.03 91 1018.8
20260506100003 53 0 0.0 0.0 0.00 0.08 0.03 91 1018.6
20260506095503 53 0 0.0 0.0 0.00 0.08 0.03 91 1018.5
20260506095003 53 0 0.0 0.0 0.00 0.08 0.03 91 1018.4
20260506094503 53 0 0.0 0.0 0.00 0.08 0.03 91 1018.3
20260506094004 53 0 0.0 0.0 0.00 0.08 0.03 91 1018.4
20260506093503 53 0 0.0 0.0 0.00 0.08 0.03 91 1018.3
20260506093003 53 0 0.0 0.0 0.00 0.08 0.03 90 1018.3
20260506092503 53 0 0.0 0.0 0.00 0.08 0.03 90 1018.4
20260506092003 53 0 0.0 0.0 0.00 0.08 0.03 90 1018.4
20260506091503 53 0 0.0 0.0 0.00 0.08 0.03 90 1018.5
20260506091003 53 0 0.0 0.0 0.00 0.08 0.03 90 1018.5
20260506090504 53 0 0.0 0.0 0.00 0.08 0.03 90 1018.5
20260506090003 53 0 0.0 0.0 0.00 0.08 0.03 90 1018.5
20260506085503 53 0 0.0 0.0 0.00 0.08 0.03 90 1018.7
20260506085003 53 0 0.0 0.0 0.00 0.08 0.03 90 1018.3
20260506084503 53 0 0.0 0.0 0.00 0.08 0.03 90 1018.5
20260506084003 53 0 0.0 0.0 0.00 0.08 0.03 90 1018.7
20260506083525 53 0 0.0 0.0 0.00 0.08 0.03 90 1018.9
20260506083003 53 0 0.0 0.0 0.00 0.08 0.03 89 1018.8
20260506082503 53 0 0.0 0.0 0.00 0.08 0.03 89 1018.8
20260506082003 53 0 0.0 0.0 0.00 0.08 0.03 89 1019.3
20260506081504 53 0 0.0 0.0 0.00 0.08 0.03 89 1019.0
20260506081003 53 0 0.0 0.0 0.00 0.08 0.03 89 1019.0
20260506080504 54 0 0.0 0.0 0.00 0.08 0.03 89 1018.8
20260506073503 54 0 0.0 0.0 0.00 0.08 0.03 89 1019.6
20260506073003 54 0 0.0 0.0 0.00 0.08 0.03 89 1019.6
20260506072503 54 0 0.0 0.0 0.00 0.08 0.03 89 1019.4
20260506072003 54 0 0.0 0.0 0.00 0.08 0.03 89 1019.6
20260506071504 54 0 0.0 0.0 0.00 0.08 0.03 89 1019.3
20260506071003 54 0 0.0 0.0 0.00 0.08 0.03 89 1019.5
20260506070504 54 0 0.0 0.0 0.00 0.08 0.03 89 1019.2
20260506062503 54 0 0.0 0.0 0.00 0.08 0.03 89 1019.9
20260506062003 55 0 0.0 0.0 0.00 0.08 0.03 89 1020.0
20260506061503 55 0 0.0 0.0 0.00 0.08 0.03 89 1020.0
20260506061003 55 0 0.0 0.0 0.00 0.08 0.03 88 1020.0
20260506060504 55 292 0.0 1.7 0.00 0.08 0.03 88 1019.9
20260506051003 56 0 0.0 0.0 0.03 0.08 0.03 86 1019.9
20260506050504 56 0 0.0 0.0 0.03 0.08 0.03 86 1020.2
20260506045003 56 164 0.0 0.9 0.06 0.08 0.03 85 1019.9
20260506044503 56 251 0.0 2.6 0.06 0.08 0.03 85 1020.1
20260506044003 57 284 0.9 5.2 0.06 0.08 0.03 85 1020.1
20260506043503 57 293 0.9 5.2 0.06 0.08 0.03 85 1019.8
20260506043003 57 286 0.9 5.2 0.06 0.08 0.03 85 1019.7
20260506042504 57 264 1.7 6.1 0.06 0.07 0.03 84 1019.9
20260506042004 57 274 1.7 8.7 0.04 0.06 0.00 84 1020.3
20260506041504 58 288 3.5 11.3 0.04 0.06 0.00 84 1020.1
20260506041003 58 285 3.5 12.2 0.04 0.06 0.00 83 1019.8
20260506040504 58 284 3.5 12.2 0.04 0.06 0.00 83 1019.6
20260506040004 59 280 3.5 12.2 0.03 0.05 0.00 81 1019.8
20260506035504 60 272 2.6 11.3 0.01 0.03 0.03 77 1020.0
20260506035003 60 282 3.5 11.3 0.00 0.02 0.02 78 1020.1
20260506034524 60 288 3.5 12.2 0.00 0.02 0.02 77 1019.8
20260506034003 61 289 1.7 12.2 0.00 0.02 0.02 77 1019.9
20260506033503 61 279 1.7 7.8 0.00 0.02 0.02 77 1020.2
20260506033003 61 278 2.6 7.8 0.00 0.02 0.02 77 1020.0
20260506032503 61 277 1.7 7.8 0.00 0.02 0.02 77 1019.9
20260506032024 62 267 1.7 11.3 0.00 0.02 0.02 78 1019.9
20260506031504 62 278 1.7 11.3 0.00 0.02 0.02 78 1020.1
20260506031003 62 283 1.7 9.6 0.00 0.02 0.02 78 1019.5
20260506030503 62 288 2.6 6.1 0.00 0.02 0.02 78 1019.6
20260506030005 62 289 1.7 6.1 0.00 0.02 0.02 79 1019.6
20260506025504 63 282 1.7 5.2 0.00 0.02 0.02 79 1019.6
20260506025003 63 272 1.7 5.2 0.00 0.02 0.02 80 1019.3
20260506024524 63 268 0.9 7.0 0.00 0.02 0.02 80 1019.3
20260506024003 63 282 0.9 7.0 0.00 0.02 0.02 80 1019.3
20260506023504 62 283 0.9 6.1 0.00 0.02 0.02 81 1019.4
20260506023003 62 273 0.9 6.1 0.00 0.02 0.02 82 1019.3
20260506022503 61 263 0.0 2.6 0.00 0.02 0.02 82 1019.3
20260506022025 62 277 0.0 0.9 0.00 0.02 0.02 81 1019.1
20260506021503 62 277 0.0 0.9 0.00 0.02 0.02 81 1019.3
20260506021004 62 277 0.0 0.9 0.00 0.02 0.02 80 1019.2
20260506020526 62 0 0.0 0.0 0.00 0.02 0.02 80 1019.1
20260506020004 62 0 0.0 0.0 0.00 0.02 0.02 79 1019.4
20260506015503 62 0 0.0 0.0 0.00 0.02 0.02 78 1019.2
20260506015003 62 0 0.0 0.0 0.00 0.02 0.02 78 1019.0
20260506014503 62 0 0.0 0.0 0.00 0.02 0.02 78 1018.7
20260506014003 62 0 0.0 0.0 0.00 0.02 0.02 77 1018.7
20260506013504 62 0 0.0 0.0 0.00 0.02 0.02 77 1018.5
20260506013003 62 277 0.0 0.9 0.00 0.02 0.02 76 1018.6
20260506012525 62 277 0.0 0.9 0.00 0.02 0.02 76 1018.7
20260506012004 62 277 0.0 0.9 0.00 0.02 0.02 76 1018.6
20260506011525 63 277 0.0 0.9 0.00 0.02 0.02 76 1018.4
20260506011003 63 277 0.0 0.9 0.00 0.02 0.02 76 1018.4
20260506010503 63 0 0.0 0.0 0.00 0.02 0.02 75 1018.4
20260506010003 63 0 0.0 0.0 0.00 0.02 0.02 75 1018.1
20260506005504 63 0 0.0 0.0 0.00 0.02 0.02 75 1018.0
20260506005004 63 277 0.0 1.7 0.00 0.02 0.02 75 1018.4
20260506004525 63 279 0.9 1.7 0.00 0.02 0.02 75 1018.2
20260506004003 63 282 0.0 1.7 0.00 0.02 0.02 75 1018.1
20260506003504 63 284 0.0 1.7 0.00 0.02 0.02 74 1018.3
20260506003003 64 282 0.9 2.6 0.00 0.02 0.02 73 1018.4
20260506002503 64 281 0.0 2.6 0.00 0.02 0.02 72 1018.0
20260506002003 64 0 0.0 0.0 0.00 0.02 0.02 72 1018.2
20260506001524 64 211 0.0 0.9 0.00 0.02 0.02 71 1018.0
20260506001003 64 212 0.0 0.9 0.00 0.02 0.02 70 1017.7
20260506000503 64 212 0.0 0.9 0.00 0.02 0.02 70 1017.5
20260506000003 65 212 0.0 0.9 0.00 0.02 0.02 70 1017.6
20260505235503 65 205 0.0 0.9 0.00 0.02 0.02 69 1017.7
20260505235003 65 205 0.0 0.9 0.00 0.02 0.02 69 1017.1
20260505234504 65 203 0.0 0.9 0.00 0.02 0.02 69 1017.4
20260505234004 65 0 0.0 0.0 0.00 0.02 0.02 68 1017.4
20260505233524 65 202 0.0 0.9 0.00 0.02 0.02 68 1017.3
20260505233004 66 202 0.0 0.9 0.00 0.02 0.02 68 1017.2
20260505232503 66 202 0.0 0.9 0.00 0.02 0.02 68 1017.3
20260505232003 66 202 0.0 0.9 0.00 0.02 0.02 68 1016.9
20260505231524 65 202 0.0 0.9 0.00 0.02 0.02 69 1017.2
20260505231004 65 278 0.0 1.7 0.00 0.02 0.02 69 1017.1
20260505230503 65 294 0.9 1.7 0.00 0.02 0.02 70 1016.9
20260505230004 65 292 0.0 1.7 0.00 0.02 0.02 71 1017.0
20260505225503 65 187 0.0 1.7 0.00 0.02 0.02 71 1016.7
20260505225003 65 253 0.9 7.0 0.00 0.02 0.02 71 1017.1
20260505224504 65 271 0.9 7.0 0.00 0.02 0.02 71 1016.8
20260505224003 65 261 0.9 3.5 0.00 0.02 0.02 70 1016.7
20260505223504 65 256 1.7 7.0 0.00 0.02 0.02 70 1016.8
20260505223003 65 267 2.6 7.8 0.00 0.02 0.02 70 1016.9
20260505222504 65 276 2.6 7.8 0.00 0.02 0.02 70 1017.1
20260505222003 66 272 2.6 12.2 0.00 0.02 0.02 70 1016.9
20260505221504 66 280 3.5 14.8 0.00 0.02 0.02 70 1017.1
20260505221004 66 280 3.5 14.8 0.00 0.02 0.02 69 1017.4
20260505220504 66 273 4.3 19.1 0.00 0.02 0.02 68 1017.3
20260505220003 67 273 6.1 19.1 0.00 0.02 0.02 67 1017.2
20260505215506 67 271 5.2 18.2 0.00 0.02 0.02 66 1017.3
20260505215005 68 270 4.3 16.5 0.00 0.02 0.02 63 1017.1
20260505214504 68 271 3.5 16.5 0.00 0.02 0.02 63 1017.3
20260505214003 68 269 2.6 12.2 0.00 0.02 0.02 62 1017.5
20260505213503 68 253 2.6 12.2 0.00 0.02 0.02 60 1017.3
20260505213004 69 255 2.6 11.3 0.00 0.02 0.02 60 1017.1
20260505212503 69 285 2.6 8.7 0.00 0.02 0.02 59 1016.9
20260505212003 69 287 4.3 12.2 0.00 0.02 0.02 58 1016.2
20260505211504 70 291 5.2 12.2 0.00 0.02 0.02 57 1016.1
20260505211004 71 296 5.2 15.6 0.00 0.02 0.02 56 1016.2
20260505210503 71 286 7.0 18.2 0.00 0.02 0.02 55 1016.2
20260505210003 73 292 7.0 18.2 0.00 0.02 0.02 53 1016.2
20260505205504 74 298 4.3 16.5 0.00 0.02 0.02 53 1016.2
20260505205024 74 290 2.6 8.7 0.00 0.02 0.02 53 1015.9
20260505204503 75 278 0.9 6.1 0.00 0.02 0.02 53 1015.3
20260505204003 75 294 1.7 6.1 0.00 0.02 0.02 53 1015.0
20260505203503 75 302 1.7 6.1 0.00 0.02 0.02 53 1014.7
20260505203004 74 278 0.9 6.1 0.00 0.02 0.02 54 1014.9
20260505202524 74 276 0.9 6.1 0.00 0.02 0.02 55 1014.8